User: anonymous   Login
Location: Unspecified
(0.0000°N, 0.0000°E)
Time: 05:37:35
(UTC+01:00)
Language:

Ariane H10 - Orbit

View from above orbital plane
View from above orbital plane
View from above satellite
View from above satellite

Ground track
Ground track

The orbit data is extracted from the following two-line orbital elements,

1 21815U 91084C   16335.50523580 +.00000155 +00000-0 +50046-3 0  9994
2 21815 003.6551 164.8233 7201596 271.2157 014.9197 02.31693295207742
Epoch (UTC): 30 November 2016 12:07:32
Eccentricity: 0.7201596
inclination: 3.6551°
perigee height: 373 km
apogee height: 35119 km
right ascension of ascending node: 164.8233°
argument of perigee: 271.2157°
revolutions per day: 2.31693295
mean anomaly at epoch: 14.9197°
orbit number at epoch: 20774

The dashed part of the orbit path shows where the satellite is in the earth's shadow,  

DLR